FW6001 Weather Reports


time (UTC)temp
F
wind
direction
speed
knots
gust
knots
rain 1hr
in
rain 24hr
in
rain mn
in
humidity
%
barometer
mb
20260505070039 45 228 11.3 26.9 0.00 0.00 0.00 78 1006.1
20260505064536 45 212 11.3 28.7 0.00 0.00 0.00 77 1005.6
20260505063044 45 159 13.9 32.2 0.00 0.00 0.00 77 1005.0
20260505061534 45 153 15.6 26.9 0.00 0.00 0.00 76 1005.0
20260505060025 46 162 13.0 27.8 0.00 0.00 0.00 76 1004.5
20260505054535 46 193 11.3 20.9 0.00 0.00 0.00 76 1004.3
20260505053021 46 289 10.4 23.5 0.00 0.00 0.00 75 1004.4
20260505051534 46 226 7.8 25.2 0.00 0.00 0.00 75 1004.4
20260505041512 47 135 12.2 29.5 0.00 0.00 0.00 75 1003.6
20260505040009 47 212 10.4 26.9 0.00 0.00 0.00 76 1003.6
20260505034507 47 165 12.2 25.2 0.00 0.00 0.00 75 1003.3
20260505033004 47 188 12.2 26.9 0.00 0.00 0.00 74 1002.9
20260505031503 48 117 13.9 29.5 0.00 0.00 0.00 73 1002.8
20260505030106 48 229 13.0 22.6 0.00 0.00 0.00 73 1002.7
20260505024612 48 115 10.4 23.5 0.00 0.00 0.00 72 1002.7
20260505023059 48 182 10.4 27.8 0.00 0.00 0.00 70 1002.5
20260505021557 49 201 9.6 29.5 0.00 0.00 0.00 68 1002.1
20260505014549 49 193 10.4 24.3 0.00 0.00 0.00 65 1001.6
20260505013048 49 151 13.0 25.2 0.00 0.00 0.00 65 1001.5
20260505011547 49 248 10.4 25.2 0.00 0.00 0.00 65 1001.5
20260505010105 48 199 11.3 26.9 0.00 0.00 0.00 65 1001.5
20260505004546 46 188 8.7 16.5 0.00 0.00 0.00 67 1001.4
20260505003049 46 228 4.3 20.0 0.00 0.00 0.00 67 1001.5
20260505001543 46 235 6.1 18.2 0.00 0.00 0.00 62 1001.3
20260505000046 48 182 7.8 22.6 0.00 0.00 0.00 58 1000.9
20260504234539 48 254 9.6 18.2 0.00 0.00 0.00 58 1000.5
20260504233045 47 181 12.2 24.3 0.00 0.00 0.00 61 1000.5
20260504231537 48 146 10.4 24.3 0.00 0.00 0.00 61 1000.3
20260504230034 48 205 12.2 29.5 0.00 0.00 0.00 60 999.9
20260504224536 49 229 12.2 30.4 0.00 0.00 0.00 59 999.7
20260504223033 48 156 16.5 27.8 0.00 0.00 0.00 60 999.5
20260504221532 49 176 12.2 25.2 0.00 0.00 0.00 60 999.6
20260504220031 49 140 14.8 25.2 0.00 0.00 0.00 61 999.1
20260504214630 50 169 9.6 24.3 0.00 0.00 0.00 60 999.6
20260504213029 50 110 14.8 26.9 0.00 0.00 0.00 59 999.2
20260504211523 49 200 15.6 33.0 0.00 0.00 0.00 62 998.7
20260504210022 49 205 15.6 35.6 0.00 0.00 0.00 62 999.0
20260504204521 49 209 14.8 30.4 0.00 0.00 0.00 63 998.6
20260504203020 48 182 15.6 29.5 0.00 0.00 0.00 63 998.5
20260504201516 48 136 16.5 35.6 0.00 0.00 0.00 65 997.9
20260504200018 47 169 15.6 36.5 0.00 0.00 0.00 67 998.1
20260504194513 47 152 16.5 36.5 0.00 0.00 0.00 69 997.2
20260504193008 46 138 15.6 34.8 0.00 0.00 0.00 70 996.6
20260504191505 46 178 21.7 36.5 0.00 0.00 0.00 71 996.6
20260504190004 46 180 18.2 33.0 0.00 0.00 0.00 72 995.9
20260504184601 45 214 20.0 45.2 0.00 0.00 0.00 72 995.9
20260504183056 44 171 20.0 40.0 0.00 0.00 0.00 74 995.4
20260504181553 44 115 22.6 36.5 0.00 0.00 0.00 76 995.1
20260504180050 43 140 20.0 41.7 0.00 0.00 0.00 78 995.2
20260504174553 43 202 18.2 49.5 0.00 0.00 0.00 79 994.8
20260504173044 42 188 22.6 40.0 0.00 0.00 0.00 81 995.1
20260504171541 41 186 21.7 40.8 0.00 0.00 0.00 83 995.2
20260504120129 36 190 7.0 21.7 0.00 0.00 0.00 91 984.7
20260504081527 36 228 5.2 15.6 0.00 0.00 0.00 93 974.9